Location: Unspecified
(64.9000°N, 0.0000°E)
Time: 20:36:26
(UTC+00:00)

Transit 2A Rocket - Pass Details

Date: 25 June 2019
Orbit: 588 x 915 km, 66.7° (Epoch: 16 July)

Event Time Altitude Azimuth Distance (km) Brightness Sun altitude
Rises 15:15:26 0° 290° (WNW) 3,466 8.9 38.2°
Reaches altitude 10° 15:18:01 10° 290° (WNW) 2,488 8.3 38.0°
Maximum altitude 15:23:47 89° 18° (NNE) 808 5.8 37.5°
Drops below altitude 10° 15:29:01 10° 112° (ESE) 2,265 7.2 37.0°
Sets 15:31:16 0° 113° (ESE) 3,136 7.8 36.7°
